Temp
64 64 64 63 63 62 62 62 61 61 61 61 61 61 60 60 61 61 61 61 61 60 61 61 61 62 65 71 76 81 80 79 81 84 84 82 79 78 75 78 79 75 78 82 85 85 85
64 64 64 63 63 63 62 62 62 61 61 61 60 60 60 60 60 60 60 60 60 60 60 61 61 62 67 70 82 83 81 82 83 83 82 84 82 84 79 79 79 80 80 85 83 85 86
63 63 63 63 63 63 62 62 62 61 61 60 60 60 60 60 60 60 60 59 59 60 60 61 61 64 68 76 82 83 84 84 84 85 80 83 85 82 82 78 83 82 77 81 85 84 83
63 63 62 63 63 63 62 62 62 61 60 60 60 59 59 59 59 59 59 58 59 62 61 61 62 65 70 82 82 81 82 82 83 85 84 86 87 83 81 83 80 79 76 75 81 83 84
63 62 62 62 63 62 62 62 62 61 60 60 59 59 59 59 59 58 58 58 61 63 62 63 65 67 73 80 81 84 86 84 83 84 84 89 86 80 80 77 73 72 69 74 76 84 82
62 62 62 62 62 62 62 62 61 61 60 59 59 59 58 58 58 57 57 58 62 64 66 68 70 67 78 76 82 84 83 85 84 83 81 80 79 76 76 75 67 69 71 73 74 80 81
62 62 62 62 62 61 61 61 61 60 60 59 58 58 58 58 57 57 58 67 71 70 69 69 70 69 73 81 82 82 84 84 83 80 73 74 72 69 74 74 75 74 70 69 75 81 79
62 62 62 61 61 60 60 61 60 60 60 59 58 58 58 57 57 56 59 72 70 70 66 70 69 70 75 78 76 81 87 79 76 71 73 72 68 72 74 73 73 73 70 71 76 80 78
62 61 61 61 60 60 59 60 60 60 59 59 58 58 57 57 56 63 64 71 71 70 65 68 72 72 76 78 76 78 84 78 74 70 70 69 71 74 73 72 71 71 71 70 71 76 77
61 61 60 60 60 60 60 60 59 59 59 59 58 57 57 55 61 60 70 70 69 69 62 66 71 77 76 77 74 82 84 80 74 69 70 71 74 73 71 69 72 68 75 75 73 72 68
61 61 60 60 60 60 59 59 59 59 59 59 58 57 56 55 55 66 71 68 70 71 50 69 72 82 77 76 77 77 83 81 72 70 71 68 70 71 69 71 74 71 76 74 74 71 71
61 60 60 60 60 60 59 58 58 58 59 58 57 57 56 55 55 65 67 68 73 59 48 65 72 72 73 74 76 77 78 81 77 72 71 71 75 75 75 75 76 77 73 71 70 72 63
60 60 60 60 60 59 58 58 58 58 58 57 56 55 54 60 69 66 68 73 60 53 66 62 64 69 69 67 71 72 71 69 68 62 62 67 70 74 76 72 73 73 71 61 59 60 61
60 60 60 59 59 58 58 58 58 57 57 56 55 54 56 60 64 66 73 66 51 59 60 67 65 65 64 65 66 67 66 65 67 66 63 62 59 70 75 74 71 71 72 64 53 57 62
60 60 60 59 58 58 58 58 57 57 56 55 53 62 63 67 64 64 70 57 56 59 64 63 64 61 60 63 65 64 61 62 64 65 63 62 61 71 72 75 75 67 65 75 65 61 63
60 60 59 59 58 58 58 58 57 57 56 54 56 61 69 67 68 71 66 53 60 64 66 64 57 59 57 59 62 62 60 63 62 65 66 63 60 67 71 74 73 71 73 65 65 54 53
60 59 59 58 58 58 58 57 57 56 55 53 61 67 69 70 70 69 60 59 63 67 66 62 59 58 56 57 59 59 57 61 62 64 66 66 64 65 68 67 65 69 67 65 69 65 60
59 59 59 58 58 58 58 57 56 54 53 54 60 64 71 70 65 57 61 61 57 65 67 64 63 61 58 57 57 58 57 58 63 63 62 61 65 63 64 67 67 68 64 64 63 58 63
59 59 59 58 58 58 58 57 56 54 52 54 56 57 70 70 61 60 60 62 63 64 60 62 60 61 59 55 54 57 58 63 63 63 59 63 60 58 59 66 67 65 66 65 62 63 61
59 59 58 58 58 58 58 57 56 55 54 57 57 60 65 64 59 61 60 59 60 64 60 60 59 61 58 56 57 55 57 61 62 62 59 63 58 56 57 58 62 61 63 64 64 61 62
58 58 58 58 58 58 58 58 56 56 54 56 56 56 56 60 61 60 60 61 59 58 61 61 58 57 58 54 54 53 56 59 62 60 60 62 56 56 59 59 60 60 62 64 62 63 60
58 58 58 58 58 58 58 58 57 55 53 57 57 57 56 57 55 58 55 58 58 56 59 56 56 55 57 56 56 53 56 57 55 62 59 60 54 55 57 59 60 59 64 65 62 61 61
58 58 58 58 58 58 58 58 57 55 53 55 55 56 59 52 56 58 60 59 60 61 59 61 59 57 56 57 60 60 60 58 58 56 56 56 56 55 52 56 58 56 60 60 60 62 59
58 58 58 58 58 58 58 58 57 55 54 56 56 57 57 57 56 59 59 61 60 59 58 59 60 57 58 62 60 61 60 59 58 55 57 53 52 53 53 55 45 59 63 62 61 60 62
57 57 57 58 58 58 58 58 57 56 53 54 55 56 56 55 57 57 59 58 59 59 58 59 59 59 63 59 55 51 52 52 52 52 53 56 54 51 49 51 55 57 57 57 55 58 61
57 57 57 57 58 58 58 58 57 56 54 54 52 56 57 56 56 60 59 61 57 56 57 57 59 60 60 56 51 44 44 46 46 49 53 53 53 52 48 46 44 56 57 60 59 52 56
57 57 57 57 57 58 58 58 57 57 54 53 52 57 57 55 59 59 59 59 60 58 57 57 58 58 58 48 43 45 44 46 44 44 45 48 48 47 48 47 53 53 57 60 46 51 55
56 56 56 56 57 57 57 58 57 57 56 53 54 57 58 56 59 60 63 58 58 60 56 55 56 55 53 44 42 44 46 46 45 46 44 45 45 46 48 45 43 55 58 50 49 54 55
56 56 56 56 56 57 57 57 57 57 57 55 54 58 58 57 59 59 64 64 65 66 59 54 57 54 56 44 39 47 44 47 45 40 47 41 49 47 46 48 51 52 49 51 52 52 54
MSLP
1022.44 1022.06 1021.73 1021.34 1020.90 1020.47 1020.09 1019.67 1019.29 1018.87 1018.42 1017.82 1017.20 1016.66 1016.19 1015.77 1015.36 1014.87 1014.31 1013.78 1013.27 1013.03 1012.93 1012.75 1012.53 1012.18 1011.70 1010.72 1008.67 1008.03 1007.97 1008.29 1008.53 1008.32 1008.16 1008.25 1008.36 1008.35 1007.99 1007.85 1007.73 1007.33 1006.73 1006.51 1006.22 1006.43 1006.37
1022.54 1022.08 1021.67 1021.28 1020.87 1020.45 1020.07 1019.64 1019.14 1018.66 1018.19 1017.68 1017.09 1016.45 1015.82 1015.30 1014.87 1014.42 1013.96 1013.41 1012.85 1012.59 1012.57 1012.51 1012.41 1012.19 1011.41 1009.80 1008.15 1008.08 1008.18 1008.42 1008.54 1008.58 1008.34 1008.27 1008.10 1008.10 1007.93 1007.72 1007.52 1007.17 1006.89 1006.25 1006.24 1006.12 1006.15
1022.65 1022.17 1021.73 1021.24 1020.84 1020.43 1020.01 1019.57 1019.01 1018.47 1017.99 1017.51 1016.97 1016.39 1015.75 1015.01 1014.53 1014.08 1013.60 1012.94 1012.35 1011.99 1012.01 1012.17 1012.34 1012.11 1010.87 1008.87 1008.23 1008.25 1008.21 1008.21 1008.40 1008.47 1008.34 1008.40 1008.14 1008.00 1007.79 1007.43 1007.39 1006.99 1006.84 1006.18 1005.60 1006.01 1005.91
1022.62 1022.15 1021.70 1021.23 1020.80 1020.36 1019.93 1019.41 1018.86 1018.33 1017.77 1017.25 1016.74 1016.11 1015.44 1014.75 1014.10 1013.55 1013.17 1012.64 1011.92 1011.26 1011.34 1011.90 1012.19 1011.88 1009.58 1008.16 1008.36 1008.33 1008.33 1008.28 1008.52 1008.49 1008.39 1008.24 1008.23 1007.97 1007.71 1007.65 1007.29 1006.72 1006.62 1005.81 1005.80 1005.82 1006.00
1022.60 1022.15 1021.69 1021.18 1020.66 1020.24 1019.79 1019.29 1018.75 1018.13 1017.56 1017.06 1016.45 1015.89 1015.24 1014.48 1013.86 1013.33 1012.70 1012.22 1011.72 1011.27 1011.11 1011.58 1011.79 1011.24 1008.66 1007.92 1007.95 1007.75 1007.95 1007.77 1008.06 1008.34 1008.37 1008.08 1008.20 1007.87 1007.88 1007.32 1007.14 1006.95 1006.19 1005.80 1005.70 1005.86 1005.86
1022.50 1022.01 1021.54 1021.10 1020.58 1020.07 1019.60 1019.13 1018.53 1017.96 1017.37 1016.72 1016.14 1015.46 1014.80 1014.17 1013.42 1012.86 1012.35 1012.04 1011.68 1011.42 1011.37 1011.32 1011.03 1010.69 1008.39 1007.85 1007.41 1007.61 1007.98 1007.86 1007.65 1007.88 1008.11 1008.22 1008.07 1007.71 1007.55 1007.11 1006.45 1006.51 1006.25 1006.15 1005.95 1005.95 1005.91
1022.34 1021.83 1021.39 1020.92 1020.43 1019.98 1019.41 1018.81 1018.33 1017.79 1017.18 1016.56 1015.99 1015.38 1014.71 1013.92 1013.20 1012.77 1012.06 1011.72 1011.78 1011.29 1010.70 1010.15 1010.05 1009.55 1008.72 1007.99 1007.65 1007.33 1007.49 1007.68 1007.66 1007.67 1007.66 1008.33 1007.87 1007.42 1007.24 1007.41 1007.23 1007.02 1006.75 1006.53 1006.49 1006.21 1006.01
1022.11 1021.58 1021.11 1020.64 1020.21 1019.79 1019.32 1018.67 1018.06 1017.53 1016.95 1016.30 1015.64 1015.17 1014.41 1013.59 1012.85 1012.32 1012.19 1011.27 1011.18 1011.29 1010.43 1009.63 1009.29 1009.03 1008.51 1008.31 1007.48 1007.31 1007.28 1007.36 1007.60 1007.62 1007.97 1008.19 1007.76 1008.11 1007.96 1007.95 1007.61 1007.37 1007.18 1006.82 1006.56 1006.41 1006.25
1021.84 1021.40 1020.93 1020.40 1019.90 1019.50 1019.09 1018.53 1017.92 1017.36 1016.73 1016.13 1015.49 1014.81 1014.04 1013.21 1012.60 1012.07 1011.92 1011.35 1011.26 1011.08 1010.34 1009.07 1008.57 1008.03 1007.82 1007.85 1007.35 1007.13 1007.18 1007.37 1007.53 1007.81 1007.94 1007.81 1007.97 1008.18 1008.04 1007.91 1007.63 1007.50 1007.15 1007.02 1006.66 1006.59 1006.56
1021.54 1021.12 1020.61 1020.07 1019.60 1019.17 1018.72 1018.11 1017.56 1016.98 1016.47 1015.84 1015.27 1014.67 1014.09 1013.28 1012.72 1012.57 1011.59 1011.23 1011.27 1011.31 1009.99 1008.83 1007.97 1007.23 1007.50 1007.34 1007.23 1007.11 1007.08 1007.13 1007.67 1007.95 1008.20 1008.12 1008.20 1007.93 1007.96 1007.88 1007.74 1007.29 1007.39 1007.13 1006.98 1006.61 1006.18
1021.33 1020.86 1020.31 1019.78 1019.34 1018.87 1018.34 1017.81 1017.27 1016.70 1016.07 1015.48 1014.90 1014.38 1014.08 1013.82 1013.39 1012.32 1011.30 1011.24 1011.15 1010.89 1009.28 1008.26 1007.34 1006.95 1007.11 1007.13 1007.16 1007.19 1007.19 1007.06 1007.35 1007.93 1008.39 1008.12 1008.03 1007.86 1007.66 1007.66 1007.79 1007.39 1007.49 1007.34 1007.06 1006.79 1006.52
1021.01 1020.53 1020.04 1019.54 1019.05 1018.55 1018.03 1017.53 1016.93 1016.39 1015.63 1014.93 1014.39 1014.12 1013.76 1013.56 1013.35 1011.42 1011.19 1011.12 1010.91 1010.24 1008.69 1007.70 1007.20 1006.92 1006.91 1006.96 1006.96 1007.20 1007.15 1007.39 1007.93 1008.05 1008.32 1008.14 1008.21 1007.79 1007.32 1007.47 1007.55 1007.55 1007.62 1007.62 1007.51 1006.91 1006.39
1020.71 1020.26 1019.77 1019.27 1018.76 1018.27 1017.79 1017.19 1016.53 1015.91 1015.21 1014.54 1013.84 1013.33 1013.34 1012.96 1012.01 1011.41 1011.16 1010.52 1010.24 1009.27 1008.71 1008.16 1007.65 1007.24 1007.20 1007.42 1007.31 1007.48 1007.51 1007.99 1008.15 1008.34 1008.25 1008.32 1008.01 1007.73 1007.54 1007.37 1007.79 1007.67 1007.28 1006.99 1006.97 1006.47 1005.51
1020.34 1019.92 1019.43 1018.97 1018.54 1018.04 1017.55 1016.97 1016.35 1015.63 1014.89 1014.11 1013.21 1012.57 1012.69 1012.32 1011.94 1011.47 1010.58 1010.42 1009.57 1009.21 1008.69 1008.47 1008.15 1007.93 1007.94 1008.24 1008.20 1008.29 1008.48 1008.92 1009.21 1009.01 1008.88 1008.41 1008.12 1007.67 1007.43 1007.05 1006.99 1007.25 1006.95 1006.27 1005.87 1005.71 1005.53
1019.91 1019.48 1019.04 1018.61 1018.19 1017.72 1017.31 1016.84 1016.22 1015.55 1014.82 1013.87 1012.78 1012.20 1012.21 1011.73 1011.64 1011.67 1010.56 1009.83 1009.59 1009.35 1008.96 1008.73 1008.59 1008.45 1008.91 1009.02 1008.77 1009.06 1009.78 1010.04 1010.14 1009.96 1009.44 1008.96 1008.31 1007.87 1007.70 1007.38 1007.26 1007.57 1007.33 1007.01 1006.58 1006.94 1005.77
1019.49 1019.05 1018.66 1018.26 1017.85 1017.42 1016.99 1016.57 1016.06 1015.47 1014.69 1013.93 1013.27 1012.29 1011.74 1011.56 1011.30 1010.98 1010.14 1009.82 1009.72 1009.62 1009.27 1009.12 1009.24 1009.57 1009.57 1009.79 1009.61 1009.83 1010.51 1011.23 1011.01 1010.81 1010.37 1009.79 1008.93 1008.37 1007.91 1007.84 1007.89 1007.48 1007.48 1007.35 1007.03 1006.30 1005.54
1018.96 1018.58 1018.23 1017.90 1017.50 1017.12 1016.77 1016.29 1015.85 1015.27 1014.37 1013.68 1013.19 1012.06 1011.65 1011.51 1011.43 1010.42 1009.87 1010.11 1009.70 1009.83 1009.76 1009.84 1009.96 1010.21 1010.61 1010.72 1010.79 1011.00 1011.70 1012.11 1012.01 1011.34 1010.83 1010.27 1009.62 1008.86 1008.45 1008.28 1008.27 1008.07 1007.65 1007.66 1006.94 1006.70 1005.36
1018.47 1018.13 1017.80 1017.56 1017.25 1016.89 1016.53 1016.16 1015.79 1015.35 1014.41 1013.57 1013.42 1012.00 1011.47 1011.43 1011.07 1011.39 1010.33 1009.88 1009.90 1010.08 1010.38 1010.41 1010.61 1010.93 1011.33 1011.76 1011.77 1011.86 1012.19 1012.63 1012.72 1012.12 1011.39 1011.45 1010.39 1009.13 1009.01 1009.15 1009.24 1008.72 1008.49 1008.16 1007.09 1007.16 1006.63
1017.98 1017.70 1017.41 1017.22 1016.96 1016.65 1016.33 1016.04 1015.76 1015.52 1015.18 1015.01 1014.20 1012.97 1011.46 1011.34 1011.13 1011.03 1010.91 1010.35 1010.48 1010.21 1010.83 1011.01 1011.54 1011.84 1012.32 1012.67 1012.91 1012.91 1013.06 1013.39 1013.13 1012.56 1012.44 1011.95 1011.21 1010.07 1009.59 1009.55 1009.53 1009.11 1009.14 1009.01 1008.75 1007.93 1006.83
1017.54 1017.30 1017.06 1016.81 1016.59 1016.40 1016.16 1015.97 1015.83 1015.65 1015.49 1015.19 1014.33 1013.32 1012.15 1011.71 1011.74 1011.13 1010.63 1010.47 1010.47 1010.91 1011.32 1011.81 1012.25 1012.39 1012.66 1013.10 1013.34 1013.38 1013.50 1013.75 1013.69 1013.39 1013.21 1012.60 1012.09 1011.24 1010.32 1010.22 1010.20 1009.64 1009.59 1009.43 1008.99 1008.29 1007.61
1017.07 1016.89 1016.64 1016.39 1016.17 1015.99 1015.89 1015.61 1015.63 1015.65 1015.55 1015.55 1014.52 1013.93 1013.58 1012.54 1011.98 1011.52 1011.09 1010.73 1010.76 1011.21 1011.70 1012.15 1012.66 1012.97 1013.02 1013.35 1013.73 1013.86 1013.91 1013.95 1013.95 1013.98 1013.69 1013.30 1012.60 1012.41 1011.58 1011.26 1010.89 1010.38 1009.99 1009.69 1009.37 1009.19 1008.69
1016.59 1016.39 1016.23 1016.05 1015.81 1015.59 1015.55 1015.55 1015.47 1015.49 1015.69 1015.35 1014.77 1014.03 1013.94 1013.11 1012.50 1011.83 1011.49 1011.17 1011.11 1011.87 1012.11 1012.55 1012.86 1013.58 1013.71 1013.73 1013.94 1014.12 1014.35 1014.41 1014.63 1014.46 1014.36 1014.35 1013.78 1013.28 1012.23 1011.79 1011.27 1010.71 1010.25 1009.92 1010.02 1010.03 1009.88
1016.14 1015.95 1015.73 1015.62 1015.46 1015.26 1015.11 1015.06 1015.21 1015.29 1015.39 1015.11 1015.14 1014.73 1013.76 1013.03 1012.44 1011.95 1011.29 1011.32 1011.34 1011.89 1012.98 1012.95 1013.39 1013.80 1014.17 1014.61 1014.79 1015.09 1015.28 1015.51 1015.59 1015.57 1015.19 1014.96 1014.45 1013.74 1012.70 1012.47 1011.78 1011.04 1010.59 1010.60 1010.70 1010.80 1011.01
1015.76 1015.55 1015.33 1015.05 1014.98 1014.83 1014.71 1014.69 1014.69 1014.98 1015.17 1015.06 1014.84 1014.75 1013.99 1012.91 1012.58 1011.82 1011.49 1011.42 1011.69 1012.08 1012.75 1013.68 1013.95 1014.18 1015.12 1015.32 1015.77 1015.89 1015.86 1015.97 1016.11 1016.39 1016.28 1015.70 1015.23 1014.70 1013.49 1013.01 1011.96 1011.08 1011.75 1011.59 1011.49 1011.79 1011.79
1015.28 1015.16 1014.89 1014.75 1014.53 1014.47 1014.29 1014.33 1014.36 1014.52 1014.90 1014.98 1014.83 1014.60 1013.62 1012.74 1012.61 1012.09 1011.90 1011.87 1012.29 1012.73 1013.38 1013.94 1014.61 1015.13 1015.37 1015.52 1015.68 1016.10 1016.39 1016.47 1016.75 1017.05 1016.82 1016.53 1015.89 1015.15 1014.38 1013.32 1012.51 1012.45 1012.71 1012.81 1012.80 1012.55 1012.70
1014.83 1014.61 1014.42 1014.19 1014.04 1013.80 1013.66 1013.69 1013.98 1014.16 1014.49 1014.81 1014.73 1014.71 1014.29 1013.01 1012.37 1012.16 1012.07 1012.03 1012.35 1013.01 1013.82 1014.59 1015.29 1015.63 1015.68 1015.87 1016.21 1016.44 1016.59 1016.87 1016.96 1017.30 1017.61 1017.23 1016.78 1015.87 1015.37 1013.95 1012.97 1012.82 1013.93 1014.31 1014.25 1013.68 1013.83
1014.29 1014.15 1013.99 1013.83 1013.49 1013.23 1013.12 1013.01 1013.35 1013.77 1014.15 1014.41 1014.34 1014.26 1014.15 1013.26 1012.52 1012.48 1012.07 1012.23 1012.64 1013.09 1013.81 1014.73 1015.20 1015.58 1015.79 1016.40 1016.96 1017.17 1017.34 1017.72 1017.45 1017.47 1017.55 1017.33 1017.04 1016.22 1015.60 1014.84 1014.13 1014.99 1014.97 1014.92 1015.38 1015.28 1014.55
1013.71 1013.53 1013.37 1013.20 1012.95 1012.68 1012.43 1012.37 1012.71 1013.17 1013.63 1014.06 1013.86 1013.93 1013.98 1013.30 1012.80 1012.74 1012.44 1012.48 1012.81 1012.83 1013.46 1014.84 1015.51 1015.90 1016.33 1016.85 1017.61 1017.87 1017.75 1018.03 1018.09 1018.23 1018.07 1017.73 1017.40 1016.76 1016.45 1016.00 1015.83 1016.16 1015.68 1016.21 1016.75 1015.96 1015.36
1012.90 1012.66 1012.49 1012.46 1012.23 1012.06 1011.92 1011.93 1012.24 1012.78 1013.21 1013.53 1013.55 1013.75 1013.93 1013.55 1013.17 1013.26 1012.90 1012.83 1012.49 1012.37 1013.24 1014.72 1014.91 1015.38 1016.08 1017.07 1018.31 1018.35 1018.37 1018.47 1018.29 1018.30 1018.85 1018.59 1018.05 1017.73 1017.53 1016.53 1017.23 1017.57 1017.78 1018.05 1017.81 1016.97 1016.18
Wind_Speed
16 16 17 17 17 17 17 17 16 17 18 19 20 20 19 18 17 17 17 17 19 18 16 13 11 11 3 2 3 3 10 12 9 3 6 6 12 5 3 2 2 3 2 4 4 8 6
17 16 16 16 17 19 17 17 17 16 16 17 19 20 21 20 19 19 17 16 17 16 15 12 9 8 2 3 2 7 10 10 9 3 4 7 9 5 2 2 4 2 5 8 6 10 6
16 16 16 15 17 20 21 18 19 18 18 18 18 19 20 22 22 22 20 19 17 14 10 8 5 3 1 2 4 6 7 3 9 5 3 5 4 4 4 2 1 2 4 6 12 9 6
16 16 15 16 16 17 18 19 21 20 20 18 17 18 19 20 21 21 22 20 16 7 3 3 3 2 5 2 4 2 3 5 3 4 2 3 5 3 3 2 1 3 2 1 3 8 5
15 18 17 16 16 16 18 18 19 19 21 20 19 19 20 20 21 21 19 19 9 6 9 8 2 2 0 1 3 4 6 3 5 3 2 4 4 1 4 3 3 1 4 7 0 9 3
14 14 15 16 17 16 17 18 19 20 21 20 20 20 20 21 20 19 21 7 2 2 5 4 2 3 1 2 3 4 4 3 2 6 6 3 1 3 4 6 7 4 5 4 5 2 7
14 15 15 15 15 16 16 17 18 20 22 23 21 22 22 22 22 19 8 3 2 2 0 1 3 3 4 7 4 3 4 7 2 2 5 2 6 10 8 5 7 6 3 2 1 2 2
14 15 16 16 16 18 17 18 19 22 20 22 22 22 23 23 22 17 1 3 3 3 4 2 4 5 7 3 0 4 6 5 2 6 5 6 10 3 2 5 7 6 4 2 4 1 2
15 15 16 16 16 18 16 17 18 21 20 21 23 21 22 23 24 3 3 5 4 5 2 3 3 3 1 5 1 4 8 4 4 4 4 7 2 7 4 3 6 4 5 3 2 2 2
16 16 17 17 17 16 14 15 15 18 20 22 22 20 20 25 3 4 2 2 5 4 2 1 3 3 4 2 1 1 2 3 3 5 5 5 3 5 6 4 3 8 7 5 3 8 6
17 17 17 18 18 18 17 17 16 17 20 23 20 18 16 8 7 3 3 7 3 3 3 2 3 3 3 2 1 3 1 2 6 6 4 3 5 7 5 4 8 4 6 2 2 1 9
17 17 18 18 19 18 17 17 17 17 20 22 21 18 16 2 2 5 6 5 3 3 3 2 2 4 5 2 3 3 2 5 2 5 1 2 1 3 6 4 11 3 6 4 3 3 8
16 16 17 17 18 17 16 16 17 17 21 22 22 20 9 2 1 3 6 2 2 1 2 3 2 2 5 4 4 3 4 3 1 4 3 1 3 2 3 4 4 6 7 6 7 7 9
16 15 16 16 16 16 16 16 16 17 20 22 24 15 4 3 4 6 1 1 1 1 2 2 1 5 4 4 5 6 4 4 6 2 3 3 6 6 5 7 5 8 10 6 11 10 10
16 15 15 14 15 15 15 16 16 17 21 22 20 2 0 3 4 3 1 1 2 1 2 1 1 4 3 3 3 3 6 4 4 4 2 2 1 2 1 1 4 6 8 4 2 1 5
16 15 14 13 13 13 13 15 15 18 21 21 4 3 3 4 5 2 1 2 2 2 3 1 3 2 3 5 2 3 3 5 5 4 5 3 2 2 1 2 4 3 7 7 3 7 7
16 15 14 12 12 13 13 13 12 16 22 15 3 2 5 2 4 1 2 2 2 5 2 5 2 4 4 3 4 3 4 3 6 4 2 1 3 4 3 3 3 3 4 1 3 4 8
15 14 13 12 12 12 12 12 10 13 21 6 3 2 2 2 1 2 2 2 3 3 5 4 4 6 4 5 5 4 4 3 10 3 2 3 2 2 3 2 3 1 4 2 7 8 1
15 14 13 11 12 11 11 10 7 9 10 3 3 3 1 2 1 2 1 4 5 2 6 3 4 4 4 3 3 2 2 3 10 4 3 1 1 4 4 5 4 3 3 3 2 2 7
13 13 13 11 11 11 10 9 5 6 7 0 0 0 1 3 2 1 4 2 6 5 5 6 4 2 3 3 6 4 3 3 6 7 8 2 3 3 5 4 4 2 0 3 3 4 3
13 13 12 11 10 10 10 8 2 4 4 2 2 2 2 1 2 0 1 2 6 4 4 4 4 5 2 3 2 3 2 1 4 9 4 4 2 3 1 2 3 5 7 6 5 2 5
12 12 12 12 10 10 9 8 2 1 2 1 1 1 2 0 3 2 1 3 6 4 1 3 5 3 3 3 1 3 1 3 4 6 3 4 2 1 2 2 4 7 9 8 3 2 5
13 13 12 12 11 10 9 7 5 4 3 1 1 1 2 2 2 3 3 3 7 9 6 4 12 6 6 5 4 5 5 5 3 3 4 3 1 1 3 4 6 8 4 4 2 2 1
13 12 11 11 11 10 9 8 8 7 5 1 2 1 2 2 3 3 5 3 10 3 9 5 4 4 4 9 9 6 8 7 6 6 3 3 3 0 3 4 9 5 5 5 3 3 1
13 12 12 12 12 10 9 9 10 10 9 1 2 2 3 3 2 3 9 9 11 10 8 6 3 4 7 4 3 4 3 3 4 6 4 2 2 3 5 8 4 6 0 1 1 3 5
13 12 12 12 12 11 10 10 12 10 10 2 2 2 2 1 4 1 7 12 11 6 4 4 3 4 2 3 2 3 3 2 4 5 4 5 2 5 4 7 7 4 4 2 2 5 7
13 13 13 13 13 13 12 12 13 11 11 3 2 4 2 2 1 3 3 7 5 5 4 4 4 3 2 2 2 2 3 0 3 2 3 2 3 10 9 7 3 6 8 2 7 4 10
14 14 14 14 14 14 13 15 15 14 12 5 1 5 2 1 1 3 3 5 4 4 6 6 5 2 2 3 2 3 2 3 2 2 2 3 3 4 6 9 13 10 2 4 5 7 8
15 14 14 15 14 14 14 18 15 11 11 6 1 2 2 2 2 2 3 3 3 4 6 3 2 4 3 5 1 3 3 3 4 2 4 4 4 2 5 3 5 6 5 7 8 7 6
Wind_Direction
356 1 7 4 2 360 352 349 346 343 343 342 340 338 335 332 328 324 322 320 318 317 315 310 312 320 316 244 253 79 120 133 156 112 143 134 156 154 152 188 232 284 333 209 247 170 180
355 355 357 359 359 358 353 349 348 343 339 338 336 333 330 328 327 325 321 317 314 311 306 298 304 310 274 250 57 146 126 123 157 141 166 164 173 178 121 187 221 226 266 247 225 206 195
354 349 349 351 354 355 355 350 348 344 339 335 333 331 329 328 328 326 325 320 313 306 294 279 284 275 235 242 82 138 150 149 160 175 183 201 184 201 173 195 280 251 250 237 241 211 205
353 344 341 345 347 351 351 349 348 343 340 332 329 327 324 322 324 326 326 321 313 317 125 195 223 247 251 171 143 188 186 127 152 202 250 201 199 149 251 316 167 219 227 169 68 188 196
349 347 340 336 343 343 345 345 345 341 338 333 328 327 325 324 325 326 324 323 312 92 122 147 160 309 212 159 222 136 174 170 156 178 271 115 190 150 164 180 180 3 153 148 188 187 136
332 334 335 331 329 336 338 343 343 342 339 331 328 326 324 324 326 328 325 305 106 106 138 183 211 252 277 59 326 120 163 185 132 124 110 152 103 190 146 187 203 156 147 131 184 84 195
324 322 320 322 323 324 326 337 334 337 337 333 329 326 326 327 326 330 336 169 250 152 329 253 287 266 286 312 257 166 155 150 129 130 166 102 198 200 195 137 115 102 104 111 231 62 250
322 320 319 318 324 325 324 328 336 336 334 331 328 328 326 326 326 326 232 92 113 352 308 245 234 256 258 277 168 95 159 152 168 160 140 158 220 157 147 152 145 144 145 202 262 319 222
316 315 314 313 311 325 323 320 328 334 331 330 330 325 324 325 322 308 347 124 27 165 293 302 222 201 222 179 105 150 173 141 137 140 173 189 107 151 159 157 180 154 182 169 316 355 85
315 316 314 315 314 313 312 315 316 324 330 331 328 324 329 329 273 338 242 74 324 204 314 57 176 130 139 134 184 193 182 148 110 153 150 206 134 155 161 174 226 231 196 169 175 248 247
316 319 317 317 320 318 317 311 315 320 329 327 324 323 327 334 318 233 62 342 104 189 118 127 127 118 129 177 70 110 278 96 164 142 200 160 177 190 198 195 186 243 168 159 153 156 221
313 314 316 318 320 320 320 317 313 319 324 324 321 324 330 150 222 260 330 325 201 246 111 122 86 152 150 65 79 113 122 66 88 121 127 211 281 218 199 174 194 118 143 77 87 170 224
309 310 314 316 319 322 321 320 316 318 321 323 321 321 305 196 51 340 315 143 229 323 336 50 76 109 95 33 91 30 129 87 95 158 172 193 203 255 194 175 133 187 189 199 207 205 231
307 310 312 316 320 324 324 320 320 319 322 323 322 323 163 234 296 336 196 188 111 60 18 53 116 84 83 1 59 29 98 120 62 43 138 179 189 197 164 220 208 188 214 230 220 214 217
306 307 308 315 319 325 327 325 323 323 325 326 319 24 246 303 233 249 208 137 66 335 332 3 118 76 75 64 36 90 52 41 20 2 292 162 240 288 234 0 203 154 209 262 232 121 248
304 304 304 313 317 322 326 327 327 330 328 333 326 5 8 2 148 250 167 115 102 303 339 57 89 355 108 16 114 75 57 16 346 359 269 151 247 31 354 172 69 264 139 184 206 215 225
299 300 301 306 312 318 324 328 335 338 330 332 303 80 9 356 269 65 131 75 120 42 24 14 96 97 77 60 41 69 29 79 352 330 15 113 272 125 214 46 38 154 183 83 251 282 244
298 298 297 300 309 313 320 326 347 349 337 37 323 128 41 284 243 344 128 114 355 33 35 65 78 63 53 39 54 87 102 16 352 293 50 38 310 211 73 341 248 47 61 323 244 192 240
297 298 297 300 304 307 315 323 356 3 22 325 16 297 75 267 240 122 156 108 57 81 43 53 87 50 58 76 100 70 78 34 9 37 42 16 82 200 159 152 139 87 77 80 35 296 202
297 299 298 297 300 303 311 319 351 4 1 12 278 185 358 67 24 193 149 125 120 66 80 65 84 109 118 92 43 116 97 48 358 24 41 197 87 323 292 37 358 178 14 48 345 246 142
298 300 297 294 293 295 299 305 323 358 8 278 7 89 40 150 96 278 288 131 131 119 76 47 95 59 102 114 107 91 59 55 66 9 44 12 98 312 308 311 314 293 295 308 305 302 268
296 294 292 292 294 293 292 294 226 82 116 252 289 183 144 102 298 230 304 154 141 121 62 85 114 109 121 140 82 137 110 33 35 10 54 5 104 326 274 329 295 277 280 281 238 216 272
293 291 291 293 291 286 278 275 207 163 169 217 106 63 250 100 167 195 189 159 142 139 54 110 135 123 105 98 90 65 66 80 58 9 43 31 93 306 255 334 300 246 267 267 190 124 292
292 289 288 287 286 284 274 262 195 185 187 210 150 149 192 178 243 203 178 136 140 112 130 131 112 100 99 112 110 102 64 75 91 58 356 126 112 227 275 290 245 88 57 53 216 110 58
291 291 290 289 285 282 274 261 192 194 177 205 153 190 190 183 233 193 164 125 108 97 101 110 65 65 136 100 131 137 122 154 70 47 21 255 157 186 244 229 306 211 107 13 325 201 332
289 285 285 284 283 277 263 247 200 193 174 184 205 145 268 168 198 111 140 151 134 121 113 95 95 124 116 81 106 162 168 100 161 143 67 109 99 239 177 237 234 79 89 21 205 232 12
288 286 284 281 278 275 264 222 193 187 179 195 196 176 215 221 131 181 147 152 123 110 113 144 158 137 13 92 95 154 144 20 199 187 151 143 177 223 215 240 247 14 327 222 202 62 331
285 283 281 276 273 272 262 200 183 193 177 177 122 183 248 189 109 206 180 138 133 157 154 140 158 156 120 102 149 151 182 157 198 141 169 218 219 208 217 233 237 3 224 268 2 321 335
278 275 274 271 268 268 267 188 178 181 177 169 142 165 184 241 49 321 15 6 319 170 131 148 31 133 128 104 159 138 156 174 176 214 191 224 264 301 254 18 36 24 38 353 329 310 315